This is the latest recevied weather packets stored in our database for station/object DL3GCR-10. If no packets are shown the sender has not sent any weather packets the latest 10 day(s).
| Time | Temp. | Humidity | Pressure | Rain* | Wind** | Luminosity | Snow |
|---|---|---|---|---|---|---|---|
| 1777436526 | 10° C | 54% | 1020.7 hPa | - | - | - | - |
| 1777435626 | 10° C | 53% | 1020.6 hPa | - | - | - | - |
| 1777434726 | 10° C | 53% | 1020.4 hPa | - | - | - | - |
| 1777433826 | 10.56° C | 51% | 1020.4 hPa | - | - | - | - |
| 1777432925 | 10.56° C | 50% | 1020.2 hPa | - | - | - | - |
| 1777432025 | 11.11° C | 50% | 1020.1 hPa | - | - | - | - |
| 1777431125 | 11.11° C | 49% | 1020.1 hPa | - | - | - | - |
| 1777430225 | 11.67° C | 48% | 1019.9 hPa | - | - | - | - |
| 1777429325 | 11.67° C | 48% | 1019.9 hPa | - | - | - | - |
| 1777428425 | 12.22° C | 48% | 1019.7 hPa | - | - | - | - |
| 1777427524 | 12.22° C | 48% | 1019.8 hPa | - | - | - | - |
| 1777426624 | 12.78° C | 48% | 1019.6 hPa | - | - | - | - |
| 1777425724 | 12.78° C | 48% | 1019.5 hPa | - | - | - | - |
| 1777424824 | 12.78° C | 47% | 1019.4 hPa | - | - | - | - |
| 1777423924 | 13.33° C | 48% | 1019.4 hPa | - | - | - | - |
| 1777423023 | 13.33° C | 48% | 1019.3 hPa | - | - | - | - |
| 1777422123 | 13.33° C | 48% | 1019.4 hPa | - | - | - | - |
| 1777421223 | 13.33° C | 48% | 1019.6 hPa | - | - | - | - |
| 1777420323 | 13.89° C | 47% | 1019.4 hPa | - | - | - | - |
| 1777419423 | 13.89° C | 47% | 1019.5 hPa | - | - | - | - |
| 1777418522 | 13.89° C | 46% | 1019.4 hPa | - | - | - | - |
| 1777417621 | 14.44° C | 46% | 1019.5 hPa | - | - | - | - |
| 1777416721 | 15° C | 41% | 1019.4 hPa | - | - | - | - |
| 1777415821 | 14.44° C | 43% | 1019.4 hPa | - | - | - | - |
| 1777414925 | 15° C | 42% | 1019.2 hPa | - | - | - | - |
* Rain since midnight (hover to see other rain measurements)
** Current wind speed in m/s (hover to see current wind gust speed)